User: anonymous   Login
Location: Unspecified
(0.0000°N, 0.0000°E)
Time: 18:56:22
(UTC+00:00)
Language:

Kosmos-2195 - Orbit

View from above orbital plane
View from above orbital plane
View from above satellite
View from above satellite

Ground track
Ground track

The orbit data is extracted from the following two-line orbital elements,

1 22006U 92036A   19341.50505208  .00000019  00000-0  33081-5 0  9993
2 22006  82.9358  26.1220 0038420  83.6678  26.3343 13.74944335376555
Epoch (UTC): 07 December 2019 12:07:16
Eccentricity: 0.0038420
inclination: 82.9358°
perigee height: 953 km
apogee height: 1010 km
right ascension of ascending node: 26.1220°
argument of perigee: 83.6678°
revolutions per day: 13.74944335
mean anomaly at epoch: 26.3343°
orbit number at epoch: 37655

The dashed part of the orbit path shows where the satellite is in the earth's shadow,  

DLR